Location: Castle Hill Houses
(40.8186°N, 73.8497°W)
Time: 02:21:07
(UTC+00:00)

SL-16 R/B - Pass Details

Date: 26 January 2020
Orbit: 842 x 846 km, 71.0° (Epoch: 22 February)

Event Time Altitude Azimuth Distance (km) Brightness Sun altitude
Rises 11:35:31 0° 248° (WSW) 3,394 4.9 -7.1°
Reaches altitude 10° 11:38:43 10° 266° (W) 2,463 4.1 -6.6°
Maximum altitude 11:42:37 19° 310° (NW) 1,925 3.5 -5.9°
Drops below altitude 10° 11:46:32 10° 354° (N) 2,474 4.4 -5.2°
Sets 11:49:46 0° 12° (NNE) 3,413 5.3 -4.6°
